User: anonymous   Login
Location: Unspecified
(0.0000°N, 0.0000°E)
Time: 13:07:32
(UTC+00:00)
Language:

USA 286 - Orbit

View from above orbital plane
View from above orbital plane
View from above satellite
View from above satellite

Ground track
Ground track

The orbit data is extracted from the following two-line orbital elements,

1 43446U 18036F   21015.16157112 -.00000031  00000-0  00000-0 0  9997
2 43446   2.2898  88.3294 0007297  94.9880 314.7293  1.02119731  6717
Epoch (UTC): 15 January 2021 03:52:39
Eccentricity: 0.0007297
inclination: 2.2898°
perigee height: 35245 km
apogee height: 35306 km
right ascension of ascending node: 88.3294°
argument of perigee: 94.9880°
revolutions per day: 1.02119731
mean anomaly at epoch: 314.7293°
orbit number at epoch: 671

The dashed part of the orbit path shows where the satellite is in the earth's shadow,  

DLR